Weather History for PASI - October, 2012

Change the Weather History Date:

Friday, October 5, 2012

  Actual Average (WUND) Record (WUND)
Temperature  
Mean Temperature 53 °F -  
Max Temperature 57 °F - - (-1)
Min Temperature 51 °F - - (-1)
Degree Days  
Heating Degree Days 12    
Growing Degree Days 3 (Base 50)    
Moisture  
Dew Point 52 °F    
Average Humidity 99    
Maximum Humidity 100    
Minimum Humidity 94    
Precipitation  
Precipitation 0.03 in - - ()
Sea Level Pressure  
Sea Level Pressure 30.51 in    
Wind  
Wind Speed 2 mph (NW)    
Max Wind Speed 12 mph    
Max Gust Speed -    
Visibility 6 miles    
Events Rain    
Averages and records for this station are not official NWS values.
T = Trace of Precipitation, MM = Missing Value Source: NWS Daily Summary

Daily Weather History Graph

Daily Weather History Graph

Search for Another Location

Airport or City:

Trip Planner

Search our weather history database for the weather conditions in past years. The results will help you decide how hot, cold, wet, or windy it might be!

Date:

Astronomy

Oct. 05, 2012 Rise Set
Actual Time 7:14 AM AKDT 6:23 PM AKDT
Civil Twilight 6:36 AM AKDT 7:01 PM AKDT
Nautical Twilight 5:52 AM AKDT 7:45 PM AKDT
Astronomical Twilight 5:06 AM AKDT 8:31 PM AKDT
Moon 8:54 PM AKDT (10/5) 1:27 PM AKDT (10/5)
Length of Visible Light 12h 24m
Length of Day
11h 08m
Waning Gibbous, 73% of the Moon is Illuminated
Oct 5
Waning Gibbous
Oct 7
Last Quarter
Oct 15
New
Oct 21
First Quarter
Oct 29
Full

Hourly Weather History & Observations

Time (AKDT) Temp. Dew Point Humidity Pressure Visibility Wind Dir Wind Speed Gust Speed Precip Events Conditions
12:16 AM 51.8 °F 51.8 °F 100% 30.51 in 10.0 mi Calm Calm - 0.00 in   Overcast
12:26 AM 51.8 °F 51.8 °F 100% 30.52 in 8.0 mi Calm Calm - 0.00 in   Overcast
12:35 AM 51.8 °F 51.8 °F 100% 30.52 in 8.0 mi Calm Calm - 0.00 in   Overcast
12:53 AM 52.0 °F 52.0 °F 100% 30.52 in 6.0 mi Calm Calm - 0.00 in   Overcast
1:11 AM 51.8 °F 51.8 °F 100% 30.52 in 3.0 mi Calm Calm - N/A   Overcast
1:46 AM 51.8 °F 51.8 °F 100% 30.52 in 1.8 mi Calm Calm - N/A   Overcast
1:53 AM 52.0 °F 52.0 °F 100% 30.53 in 1.2 mi Calm Calm - N/A   Overcast
2:24 AM 51.8 °F 51.8 °F 100% 30.52 in 1.5 mi Calm Calm - 0.01 in   Overcast
2:53 AM 52.0 °F 52.0 °F 100% 30.53 in 2.0 mi Calm Calm - 0.01 in   Overcast
3:27 AM 51.8 °F 51.8 °F 100% 30.52 in 3.0 mi Calm Calm - N/A   Overcast
3:53 AM 52.0 °F 52.0 °F 100% 30.52 in 2.5 mi Calm Calm - N/A   Overcast
4:06 AM 51.8 °F 51.8 °F 100% 30.52 in 3.0 mi Calm Calm - N/A   Overcast
4:13 AM 51.8 °F 51.8 °F 100% 30.52 in 1.8 mi Calm Calm - N/A   Overcast
4:32 AM 51.8 °F 51.8 °F 100% 30.52 in 3.0 mi East 3.5 mph - N/A   Overcast
4:53 AM 52.0 °F 52.0 °F 100% 30.52 in 10.0 mi Calm Calm - N/A   Overcast
5:21 AM 51.8 °F 51.8 °F 100% 30.52 in 2.0 mi Calm Calm - N/A   Overcast
5:33 AM 51.8 °F 51.8 °F 100% 30.52 in 1.8 mi Calm Calm - N/A   Overcast
5:43 AM 51.8 °F 51.8 °F 100% 30.52 in 2.0 mi Calm Calm - N/A   Overcast
5:51 AM 51.8 °F 51.8 °F 100% 30.52 in 1.8 mi ESE 3.5 mph - 0.01 in   Overcast
5:53 AM 51.1 °F 51.1 °F 100% 30.52 in 2.0 mi ESE 3.5 mph - 0.01 in   Overcast
6:27 AM 51.8 °F 51.8 °F 100% 30.52 in 2.5 mi Calm Calm - 0.00 in   Overcast
6:33 AM 51.8 °F 51.8 °F 100% 30.52 in 4.0 mi Calm Calm - 0.00 in   Overcast
6:53 AM 51.8 °F 51.8 °F 100% 30.51 in 2.0 mi ESE 3.5 mph - N/A   Overcast
7:30 AM 51.8 °F 51.8 °F 100% 30.52 in 3.0 mi Calm Calm - N/A   Overcast
7:40 AM 51.8 °F 51.8 °F 100% 30.52 in 3.0 mi Calm Calm - N/A   Overcast
7:53 AM 52.0 °F 52.0 °F 100% 30.53 in 2.0 mi Calm Calm - N/A   Overcast
8:09 AM 51.8 °F 51.8 °F 100% 30.53 in 2.0 mi Calm Calm - 0.01 in   Overcast
8:27 AM 51.8 °F 51.8 °F 100% 30.53 in 1.0 mi Calm Calm - 0.01 in Rain Light Rain
8:53 AM 52.0 °F 52.0 °F 100% 30.53 in 1.0 mi Calm Calm - 0.01 in   Overcast
9:29 AM 51.8 °F 51.8 °F 100% 30.53 in 2.0 mi Calm Calm - N/A   Overcast
9:53 AM 52.0 °F 52.0 °F 100% 30.53 in 2.0 mi NW 3.5 mph - N/A   Overcast
10:08 AM 51.8 °F 51.8 °F 100% 30.53 in 3.0 mi NNW 4.6 mph - N/A   Overcast
10:53 AM 52.0 °F 52.0 °F 100% 30.53 in 10.0 mi NW 4.6 mph - N/A   Overcast
11:53 AM 53.1 °F 53.1 °F 100% 30.53 in 10.0 mi NW 5.8 mph - N/A   Overcast
12:53 PM 54.0 °F 53.1 °F 97% 30.53 in 10.0 mi WNW 5.8 mph - N/A   Overcast
1:16 PM 55.4 °F 53.6 °F 94% 30.52 in 10.0 mi WNW 4.6 mph - N/A   Overcast
1:35 PM 55.4 °F 53.6 °F 94% 30.52 in 10.0 mi WNW 4.6 mph - N/A   Overcast
1:53 PM 55.0 °F 54.0 °F 96% 30.52 in 10.0 mi Calm Calm - N/A   Overcast
2:16 PM 55.4 °F 53.6 °F 94% 30.52 in 10.0 mi WNW 3.5 mph - N/A   Overcast
2:42 PM 55.4 °F 53.6 °F 94% 30.52 in 10.0 mi North 3.5 mph - N/A   Overcast
2:53 PM 55.9 °F 55.0 °F 97% 30.52 in 10.0 mi Calm Calm - N/A   Overcast
3:02 PM 55.4 °F 53.6 °F 94% 30.52 in 10.0 mi NW 3.5 mph - N/A   Overcast
3:53 PM 54.0 °F 54.0 °F 100% 30.51 in 10.0 mi WNW 11.5 mph - N/A   Overcast
4:00 PM 53.6 °F 53.6 °F 100% 30.51 in 10.0 mi WNW 9.2 mph - N/A   Overcast
4:53 PM 54.0 °F 53.1 °F 97% 30.51 in 10.0 mi NW 4.6 mph - N/A   Mostly Cloudy
5:06 PM 53.6 °F 53.6 °F 100% 30.50 in 10.0 mi NW 3.5 mph - N/A   Overcast
5:53 PM 54.0 °F 53.1 °F 97% 30.50 in 10.0 mi WNW 8.1 mph - N/A   Overcast
6:00 PM 53.6 °F 53.6 °F 100% 30.50 in 10.0 mi NW 9.2 mph - N/A   Mostly Cloudy
6:53 PM 53.1 °F 53.1 °F 100% 30.50 in 10.0 mi NNW 6.9 mph - N/A   Mostly Cloudy
7:00 PM 53.6 °F 53.6 °F 100% 30.49 in 10.0 mi NNW 5.8 mph - N/A   Mostly Cloudy
7:53 PM 53.1 °F 52.0 °F 96% 30.49 in 7.0 mi NW 10.4 mph - N/A   Mostly Cloudy
8:00 PM 53.6 °F 51.8 °F 94% 30.49 in 7.0 mi NW 6.9 mph - N/A   Overcast
8:53 PM 52.0 °F 52.0 °F 100% 30.49 in 7.0 mi NW 8.1 mph - N/A   Overcast
9:32 PM 51.8 °F 51.8 °F 100% 30.48 in 7.0 mi NNW 9.2 mph - N/A   Overcast
9:45 PM 51.8 °F 51.8 °F 100% 30.48 in 9.0 mi NW 6.9 mph - N/A   Overcast
9:53 PM 52.0 °F 52.0 °F 100% 30.48 in 10.0 mi NW 8.1 mph - N/A   Overcast
10:53 PM 53.1 °F 52.0 °F 96% 30.47 in 10.0 mi NW 10.4 mph - N/A   Overcast
11:53 PM 52.0 °F 52.0 °F 100% 30.47 in 10.0 mi Calm Calm - N/A   Overcast